Wind_Speed
21 20 21 23 24 25 26 27 28 29 30 33 36 37 36 35 37 40 42 43 43 43 43 41 39 38 37 37 38 38 39 38 37 36 36 35 34 34 33 34 36 38 38 38 43 49 52 52 52 50 49 50 48 45 44 45 45 43 41 42 45 45 45 50 53 54 56 57 54 51 48 45 43 41 41 42 43 42 41 39 38 37 37 35 35
22 21 22 25 27 28 29 30 29 30 31 33 35 37 38 39 42 44 47 48 47 46 46 45 43 41 40 39 39 39 39 38 38 38 37 36 35 34 33 34 35 36 38 39 43 47 49 50 48 46 49 50 48 46 46 45 42 40 38 39 42 44 47 51 53 53 56 55 52 50 47 44 42 41 42 43 42 41 40 39 38 38 37 35 35
22 22 25 27 28 30 32 32 32 33 33 33 34 37 39 42 45 47 49 51 49 48 48 48 47 45 43 41 41 41 40 38 38 38 37 36 35 35 34 34 35 36 37 39 42 44 45 45 45 46 49 49 47 48 47 44 40 37 37 38 40 43 48 53 54 52 52 51 48 47 44 42 42 43 44 43 42 40 39 38 38 37 36 35 37
25 25 26 28 30 31 32 33 34 35 35 36 37 38 41 43 45 48 50 52 51 50 50 50 50 48 46 43 42 42 41 39 38 38 37 36 36 35 35 35 35 35 36 38 39 40 41 42 45 48 49 47 47 48 45 42 39 37 38 40 43 46 50 53 53 50 49 48 46 44 42 42 43 45 44 43 42 40 38 38 37 37 36 36 38
30 30 29 30 31 32 33 34 36 37 38 39 39 41 43 45 46 48 51 52 52 52 52 52 52 51 48 45 44 44 42 40 38 37 37 37 36 36 35 35 35 35 36 36 36 37 39 42 46 48 47 47 48 47 44 41 39 38 39 41 43 45 48 49 48 48 48 47 45 43 42 42 43 43 43 43 42 40 38 38 37 37 36 37 39
36 36 35 35 35 34 35 36 38 39 41 41 42 43 44 46 48 50 52 53 53 53 54 53 53 52 50 47 45 44 43 41 39 37 37 37 37 36 35 35 35 35 35 35 36 37 40 43 45 46 47 49 48 44 42 40 38 38 40 41 42 43 44 44 46 47 48 46 43 41 40 41 41 42 44 44 42 40 38 38 38 37 37 39 40
40 40 40 41 41 40 39 38 40 41 43 43 43 44 46 48 50 51 53 55 55 55 56 55 54 53 51 48 46 45 44 42 39 38 37 37 37 36 36 36 36 35 35 35 36 37 39 41 43 44 46 47 44 42 41 39 37 38 41 43 43 42 43 44 46 48 47 44 40 40 40 41 42 44 44 42 40 39 39 38 38 38 39 41 39
41 43 44 44 45 45 44 44 45 46 47 47 47 46 47 48 50 52 54 56 56 57 58 57 55 53 50 47 46 46 44 42 40 39 38 38 38 37 37 37 36 36 36 35 36 37 39 40 40 42 43 42 43 44 41 38 38 40 43 44 45 44 43 45 46 46 46 44 41 40 41 41 42 42 40 39 38 39 39 38 39 40 41 41 36
38 41 44 46 47 47 48 49 50 51 51 52 51 50 50 50 51 53 55 56 57 59 60 58 56 53 49 47 48 47 45 43 41 40 39 39 39 39 39 38 38 37 37 37 36 37 38 38 39 39 39 40 44 44 39 37 40 42 43 44 44 43 41 42 43 45 45 44 41 40 39 39 39 38 37 37 38 38 39 39 40 42 43 39 31
35 36 39 42 44 47 49 51 52 53 54 55 55 55 55 54 54 55 56 57 58 59 60 59 57 53 50 49 49 48 45 43 42 41 40 41 41 40 40 40 39 38 38 38 37 37 37 38 38 37 38 40 41 40 37 37 41 43 43 42 40 39 38 38 40 43 43 40 38 38 37 37 36 36 36 36 37 37 38 39 41 44 41 34 27
34 34 35 36 38 40 42 45 47 50 52 53 56 57 58 58 58 58 58 58 58 59 59 58 56 53 51 51 51 49 45 43 43 42 42 42 42 42 41 41 40 40 39 38 38 37 37 38 37 38 38 38 36 37 38 38 40 43 45 43 40 39 38 38 40 42 40 38 36 36 36 35 34 34 34 35 35 36 38 41 42 40 34 28 26
36 36 36 36 36 37 38 39 41 42 44 46 49 53 55 58 58 59 59 59 58 58 58 56 54 53 52 53 52 49 45 44 43 43 43 43 43 42 42 42 41 41 40 39 38 37 37 37 37 38 38 35 34 38 41 41 41 43 45 45 44 43 43 42 43 43 41 38 36 34 33 32 32 32 32 33 35 37 40 41 38 32 28 27 28
38 38 38 37 38 39 40 41 41 42 42 42 44 46 50 52 55 56 58 58 58 57 56 55 54 53 54 53 51 48 45 43 42 42 43 43 43 43 43 42 42 41 40 39 39 37 37 37 37 38 37 33 34 38 42 44 43 44 44 44 45 46 46 46 45 42 38 36 33 31 30 30 30 31 32 34 36 39 39 35 29 26 26 29 31
41 40 40 39 40 41 42 44 45 45 45 44 44 44 45 47 49 51 54 55 56 56 55 55 55 55 54 52 50 47 45 43 41 41 42 42 42 42 43 43 43 42 40 39 38 38 37 37 38 38 35 34 36 40 43 44 45 45 44 44 45 46 46 46 43 38 34 32 30 29 29 29 30 31 33 35 37 36 31 26 24 26 28 31 32
44 44 43 43 43 44 44 45 46 47 47 47 46 46 45 44 45 47 49 51 53 54 55 55 54 53 52 50 48 47 45 42 41 40 40 41 41 42 42 42 42 42 41 39 38 37 38 38 37 36 35 36 39 42 44 45 46 46 46 45 45 46 45 42 38 33 31 29 28 28 28 29 30 33 35 35 32 27 23 23 25 28 30 32 33
46 46 45 45 45 46 46 46 47 48 48 48 47 46 45 45 44 45 47 49 50 51 51 51 51 50 49 48 47 46 44 42 41 41 40 41 41 41 41 41 41 41 40 39 38 37 38 37 36 35 36 39 42 44 46 47 47 47 45 44 44 44 41 36 33 30 28 27 27 28 28 30 32 34 33 29 24 21 21 25 28 29 31 33 34
46 46 46 46 46 46 47 47 47 47 48 48 48 47 46 45 45 46 47 48 49 49 49 48 48 47 47 46 46 45 44 43 43 43 42 42 41 41 41 41 41 41 40 40 39 38 38 37 36 35 36 39 42 43 44 45 44 44 43 42 41 39 36 32 29 28 27 26 27 27 29 31 32 31 26 21 19 21 24 27 28 30 32 34 36
45 45 44 43 44 45 46 46 46 46 47 47 48 48 47 47 46 47 48 48 49 48 47 47 46 45 45 44 44 44 43 43 44 44 44 43 43 42 41 41 41 41 40 40 39 38 37 36 36 36 37 39 40 40 40 41 42 41 41 39 37 33 30 28 27 26 26 26 27 28 30 30 28 23 20 19 21 23 25 28 29 31 33 35 38
43 43 42 42 42 44 45 45 46 46 47 47 48 49 49 48 48 48 48 48 47 47 46 45 43 42 41 42 42 43 43 44 44 45 44 44 44 43 42 42 42 41 39 38 37 37 37 37 37 37 39 40 41 40 40 41 41 39 36 34 31 29 27 26 24 24 25 26 28 29 28 25 21 19 19 21 23 25 27 29 31 33 35 37 39
42 42 42 43 43 44 45 46 46 46 46 47 48 49 50 50 49 49 48 47 45 43 41 39 38 39 39 41 42 42 43 44 44 44 44 44 45 44 43 42 41 39 38 38 38 38 38 37 37 38 40 41 42 41 41 40 38 35 33 31 29 27 25 23 23 24 26 27 28 27 24 20 19 19 21 23 26 27 28 30 32 35 37 39 40
41 41 42 42 42 43 43 45 46 46 45 45 45 46 47 48 48 47 46 44 41 38 37 37 37 39 40 41 42 42 43 44 44 44 44 45 45 44 42 41 39 38 38 38 38 38 36 36 37 39 40 40 40 40 39 38 36 34 32 30 27 25 23 22 24 25 25 26 25 23 20 19 19 21 24 26 27 29 30 33 35 37 38 40 41
42 42 42 41 41 41 42 43 45 45 45 44 43 43 43 44 44 44 43 41 39 37 37 38 38 39 40 41 41 42 43 43 44 44 44 44 45 43 40 40 40 39 39 38 37 35 34 34 35 37 37 37 38 38 38 37 35 32 30 27 24 22 22 23 23 24 24 24 22 20 19 20 21 24 26 27 29 30 33 35 37 38 40 41 42
46 45 44 44 43 42 42 43 44 45 45 44 43 42 42 42 42 43 42 42 41 40 40 40 40 41 41 41 42 43 44 44 43 43 43 43 43 42 40 40 39 38 37 36 34 33 32 31 33 35 36 36 37 38 38 36 33 30 26 23 22 21 22 22 22 22 23 22 20 19 20 22 24 26 28 29 31 33 35 37 38 39 40 41 42
53 52 50 49 47 45 44 43 44 46 47 47 45 44 43 42 42 43 44 44 44 43 43 42 42 42 42 42 43 44 45 44 42 42 41 41 41 40 39 38 37 36 34 32 30 30 30 30 32 34 34 35 36 36 35 33 29 25 22 21 20 21 21 21 21 21 21 21 20 21 23 25 26 28 29 31 33 35 36 38 39 39 41 42 43
56 55 54 53 51 50 48 45 44 44 46 48 48 46 45 44 43 44 45 46 46 46 46 45 44 44 44 44 44 44 44 43 41 40 40 39 38 37 36 34 32 31 29 27 27 28 29 30 31 32 33 34 34 33 30 27 23 21 20 20 20 20 20 19 20 21 21 21 22 24 25 26 27 29 31 33 35 36 37 38 39 40 42 43 44
56 55 54 53 52 51 50 48 45 44 44 46 48 48 46 45 44 45 47 48 48 48 47 47 46 46 45 44 43 43 42 41 39 38 37 35 33 32 30 29 27 26 25 24 25 27 28 29 30 30 31 31 29 26 24 21 20 19 19 19 19 18 18 19 20 21 22 23 24 25 26 27 29 31 33 34 36 38 38 39 40 41 42 43 44
55 54 53 52 51 50 50 49 47 45 44 45 46 46 46 45 45 46 47 48 49 49 49 49 48 46 45 43 41 40 38 36 34 32 31 29 28 26 25 23 22 22 22 23 24 24 25 26 26 27 27 26 24 21 19 18 17 17 18 18 17 17 18 20 21 22 23 24 25 26 28 29 31 33 34 36 38 38 39 40 41 42 43 44 44
54 54 53 52 50 49 49 50 48 47 45 45 44 43 44 45 45 46 46 47 48 48 48 47 45 42 40 37 35 33 31 29 28 26 25 24 22 21 20 19 19 20 20 20 20 20 19 18 18 19 20 19 18 16 15 15 16 16 17 17 17 17 19 21 23 23 24 25 26 28 29 30 33 34 36 37 38 39 39 40 41 42 43 43 44
53 53 52 52 50 49 49 49 48 46 45 43 42 41 42 43 45 46 46 46 46 45 43 41 38 36 33 30 28 27 26 25 24 22 20 19 18 18 17 18 18 18 17 17 17 16 14 14 14 15 15 14 14 14 14 15 16 16 16 17 18 19 21 23 23 24 25 26 27 29 31 33 35 36 37 38 39 39 40 41 41 42 43 44 44
51 51 51 51 50 48 48 48 47 44 42 40 39 39 41 42 44 45 46 45 43 41 39 36 34 32 30 27 26 25 22 21 19 18 17 16 16 16 16 16 15 15 15 15 15 14 14 14 14 14 13 13 13 13 14 15 15 16 17 18 19 21 23 23 24 25 26 27 29 30 33 35 36 37 38 39 39 39 40 41 42 43 43 44 44
48 48 49 49 48 46 45 44 42 40 37 37 38 40 42 43 44 44 43 42 40 38 36 34 32 30 28 26 24 21 19 18 18 17 16 16 16 15 15 14 14 14 13 13 13 12 12 12 12 12 12 12 12 13 14 15 16 18 19 20 21 23 24 24 25 26 27 29 30 33 35 36 37 38 39 39 39 39 40 41 42 42 43 43 44
47 46 47 47 46 43 41 40 39 37 37 38 39 40 41 42 42 42 41 40 38 36 33 31 29 26 24 22 20 19 18 18 17 16 15 14 14 13 12 12 12 11 11 10 10 9 9 9 9 9 10 10 12 13 15 16 17 19 20 21 23 24 25 25 27 28 29 31 33 35 36 37 38 38 38 39 39 39 40 41 42 42 43 43 43
50 48 46 45 42 40 39 38 39 40 40 39 39 38 38 38 39 38 37 36 34 32 29 27 25 22 20 18 17 17 17 16 15 13 12 12 11 10 9 9 9 9 8 8 7 7 7 7 7 8 9 10 12 14 16 18 19 20 22 23 25 26 26 28 29 29 31 34 36 37 37 38 38 38 38 38 39 40 41 42 42 43 43 42 42
54 53 50 46 41 39 39 41 43 44 43 41 39 36 33 32 31 31 32 31 29 26 25 24 22 20 18 16 15 15 14 13 12 11 10 9 9 8 8 8 8 7 7 8 7 7 8 8 8 9 11 12 14 16 18 20 21 22 24 26 27 28 29 30 30 32 34 36 37 38 38 38 38 38 38 39 40 41 42 42 43 42 42 42 42
55 55 53 50 45 41 41 42 45 46 45 40 35 30 27 24 23 24 25 25 23 21 20 19 19 18 17 16 15 14 13 12 11 10 9 8 8 8 8 8 8 8 9 9 10 10 10 11 11 13 14 16 17 19 21 22 24 25 27 28 29 30 31 32 33 35 37 38 38 38 39 39 38 39 39 40 41 42 43 43 43 42 42 42 42
53 51 50 48 45 42 42 42 43 44 42 37 30 26 23 22 20 21 21 20 18 18 18 17 17 17 16 15 14 13 12 11 10 9 9 8 8 9 9 9 10 11 12 12 12 13 13 14 15 16 17 18 20 22 23 25 27 28 29 30 31 32 33 34 35 37 38 39 39 39 39 39 39 39 40 41 42 43 43 43 43 43 43 43 42
49 47 45 43 40 40 42 43 43 43 42 37 32 26 23 22 21 21 20 17 17 17 16 15 15 15 14 13 12 11 10 10 9 9 9 9 9 10 11 11 12 14 15 15 15 16 16 16 17 18 19 21 22 24 25 27 29 30 31 32 33 34 35 36 37 39 39 39 39 40 40 40 40 41 42 43 43 43 44 44 44 44 44 43 43
47 45 44 41 39 38 40 42 43 42 39 35 31 28 26 25 24 22 19 17 16 16 14 13 13 12 11 10 10 10 10 10 10 9 10 10 10 11 12 13 14 16 17 18 18 18 19 19 20 21 21 23 24 25 27 29 30 31 32 33 34 35 36 37 38 39 39 40 40 40 40 41 42 43 43 44 44 44 44 44 44 44 44 44 44
46 45 43 41 39 39 39 39 38 36 32 30 29 29 29 28 25 22 19 17 16 14 13 13 12 11 10 10 10 9 9 10 10 10 11 11 12 13 14 15 16 18 19 20 20 21 21 21 22 23 24 25 26 27 28 30 31 32 33 34 35 36 37 38 39 39 40 40 41 41 41 42 43 44 44 45 45 45 45 45 45 45 44 44 44
43 43 42 41 39 37 36 34 33 32 30 28 28 28 27 26 24 21 19 18 16 14 13 12 11 10 10 10 10 10 10 10 11 12 13 14 14 15 16 17 18 20 21 22 22 23 23 24 24 25 25 26 27 29 30 31 32 33 34 35 36 37 38 39 39 40 41 42 42 43 43 44 45 45 45 46 46 46 46 45 45 45 44 45 44
40 39 39 39 36 33 31 32 33 32 32 30 28 26 24 23 22 21 19 18 16 15 13 11 11 11 11 11 11 11 12 12 13 14 15 16 16 17 18 19 20 21 22 23 24 24 25 25 26 26 27 28 29 30 31 32 33 34 35 36 37 38 39 40 41 42 43 44 44 44 45 45 46 46 47 47 47 47 46 46 45 45 45 45 44
39 39 38 36 32 30 30 32 33 34 33 30 26 23 21 20 20 19 18 16 14 13 11 11 12 12 12 12 12 13 13 14 15 16 16 17 18 19 20 21 22 23 24 24 25 25 26 27 27 28 28 29 30 31 32 33 34 35 36 37 39 40 41 42 43 44 45 45 45 46 46 47 47 48 48 48 48 47 46 46 46 45 45 45 44
42 41 39 35 31 29 29 30 32 32 31 27 25 23 23 22 20 18 16 14 13 12 12 13 13 13 13 13 13 14 14 15 16 16 17 18 18 19 20 21 23 24 24 25 26 26 27 28 28 29 30 31 32 33 34 35 36 37 38 39 40 42 43 44 45 46 46 47 47 47 47 48 49 49 49 49 48 47 47 47 46 46 45 44 43
42 40 38 34 31 29 28 30 30 29 28 27 27 27 24 21 18 16 15 15 14 13 14 14 13 13 13 13 14 14 14 15 16 16 17 17 18 19 20 22 23 24 25 26 26 27 28 29 30 31 32 33 34 35 36 37 38 39 40 41 42 43 44 45 46 47 48 48 48 48 49 50 51 51 50 49 49 48 48 47 46 46 45 44 43
35 33 34 34 32 30 30 30 29 27 28 29 29 27 23 21 19 18 17 16 15 14 14 14 13 13 13 13 14 15 15 15 16 16 17 18 19 20 21 22 23 24 25 26 27 28 30 31 32 33 34 35 36 37 38 39 40 40 41 42 43 45 46 47 48 48 49 49 49 50 51 52 52 51 51 50 49 49 48 46 45 45 44 43 42
28 29 32 34 33 31 30 28 27 28 30 30 27 24 22 21 20 19 17 17 16 15 15 14 13 13 14 14 15 16 16 17 17 18 19 20 21 22 23 24 24 25 27 28 29 30 31 32 34 35 36 37 37 38 39 40 40 41 42 43 44 46 47 48 49 50 50 50 51 52 52 52 52 52 51 50 49 48 47 45 45 44 43 42 41
26 26 29 33 33 32 30 30 31 32 31 29 26 24 22 21 20 19 18 17 16 15 15 14 14 15 15 16 17 18 18 19 20 21 22 22 23 24 24 25 26 27 28 30 31 32 33 34 35 36 37 38 38 39 40 40 41 42 43 45 46 47 48 49 50 51 51 52 52 53 53 53 52 52 51 50 48 47 46 45 44 43 42 41 40
23 24 27 30 33 33 33 33 33 31 30 28 26 24 22 21 20 19 19 18 17 17 16 16 16 16 17 18 19 20 21 21 22 23 24 24 25 25 26 27 28 29 30 31 32 33 34 35 36 37 38 38 39 40 41 42 43 44 45 46 47 48 50 51 52 52 53 53 53 53 53 53 52 51 50 48 47 46 45 44 43 42 41 40 39
22 23 25 29 33 34 34 32 31 29 28 27 25 23 22 21 21 20 20 19 18 17 17 17 17 18 19 21 22 22 23 24 24 25 25 26 26 27 28 29 30 31 31 32 33 34 35 36 37 38 39 40 41 42 43 44 45 46 47 49 50 51 52 53 53 53 53 53 53 53 53 52 51 50 48 47 46 45 44 43 42 41 40 39 38
23 23 24 28 32 33 32 30 29 27 27 25 24 23 23 23 22 22 21 20 19 18 18 18 19 20 21 23 24 24 25 26 26 26 27 27 28 29 30 30 31 32 32 33 34 35 36 37 38 39 40 41 43 44 45 46 47 49 50 51 52 52 53 53 53 53 54 54 54 53 53 51 50 49 47 46 45 44 43 42 41 40 39 38 37
24 23 25 28 31 31 30 28 27 25 24 23 22 23 23 23 23 22 21 20 19 19 19 20 21 22 24 25 25 26 27 28 28 28 29 29 30 31 31 32 32 33 34 34 35 36 37 39 40 41 42 43 44 46 47 48 49 51 52 53 54 54 55 55 55 55 55 55 54 53 51 49 48 46 44 43 42 41 41 40 39 38 37 37 36
Wind_Direction
281 272 266 268 271 275 280 284 287 288 287 285 283 285 289 294 298 301 302 304 304 305 306 306 306 306 306 308 308 305 298 293 287 283 279 277 276 276 275 273 271 271 268 260 253 255 260 264 266 268 271 275 276 276 280 281 278 273 266 260 257 257 259 263 264 261 258 256 255 255 255 254 254 253 253 255 256 257 259 263 269 275 281 287 295
280 276 271 270 271 274 278 281 285 288 288 286 284 283 285 288 291 293 296 298 300 302 303 305 305 305 305 307 308 307 301 294 288 284 281 279 278 276 276 275 274 272 269 264 261 262 264 266 268 268 271 275 276 277 280 279 273 268 265 264 260 257 258 264 269 266 261 258 258 258 257 254 252 252 252 253 254 256 260 264 270 276 282 290 298
273 272 272 273 274 275 276 277 281 284 286 286 286 285 283 284 286 288 290 292 295 298 301 302 303 303 304 305 307 307 303 295 288 284 282 280 279 277 276 276 275 274 272 269 267 266 266 267 269 270 272 273 273 276 278 274 268 263 262 263 262 259 259 264 268 267 262 259 260 259 256 252 251 251 251 252 254 257 261 267 272 278 285 294 303
267 265 267 270 274 276 277 278 280 283 285 284 284 284 284 283 284 285 286 288 291 295 297 299 301 301 302 302 304 306 303 296 289 284 282 281 279 278 277 276 276 276 274 272 270 270 271 271 270 271 273 273 274 277 276 270 264 259 260 263 263 262 262 264 266 263 259 258 258 257 254 250 248 249 250 252 255 259 264 270 276 282 289 298 305
267 265 264 264 268 272 276 279 281 282 283 282 282 283 284 284 285 285 286 288 290 292 295 297 299 300 300 300 302 304 301 296 290 285 282 281 280 280 279 278 278 277 277 276 275 275 274 273 272 272 273 273 275 277 274 269 263 257 258 263 265 264 264 264 262 258 255 256 256 254 251 248 248 249 251 253 256 261 267 273 279 285 293 301 307
267 266 265 264 265 267 271 275 279 281 281 281 282 283 283 284 285 286 286 288 290 291 294 296 296 297 297 297 299 301 299 294 290 285 281 280 279 279 279 279 279 279 279 279 278 276 274 273 273 272 272 273 274 274 273 270 264 257 259 263 263 263 263 261 257 254 252 252 251 249 248 248 249 250 252 254 257 263 270 276 282 289 297 303 306
271 268 265 264 264 264 264 267 271 274 276 277 277 279 280 281 283 285 286 287 288 290 292 294 294 295 295 295 298 299 297 293 289 284 281 279 278 277 277 277 277 278 280 280 280 278 275 274 273 271 272 274 275 275 275 270 263 260 261 263 263 263 263 260 256 254 251 247 246 247 247 248 248 250 252 256 260 267 274 280 287 294 300 304 304
275 270 267 266 264 263 262 261 263 265 268 269 271 273 276 278 280 282 283 284 286 288 290 291 291 292 293 293 296 297 295 292 288 283 280 279 278 277 276 275 276 276 277 277 278 278 277 276 275 274 274 274 274 275 274 266 261 261 260 261 263 263 262 260 258 256 252 248 248 248 247 247 248 251 255 260 266 272 278 284 290 296 301 303 300
279 274 272 271 269 267 266 266 266 267 268 269 270 271 273 275 276 278 280 281 283 285 286 288 290 290 290 291 294 296 294 291 288 282 279 279 278 277 276 275 275 275 275 276 276 276 277 277 277 275 275 272 270 271 269 261 259 261 261 261 262 262 261 261 260 256 252 249 247 247 246 248 250 254 260 266 272 278 283 287 292 297 300 298 294
284 281 277 275 274 272 272 272 273 274 274 274 274 275 274 274 274 275 276 278 280 282 284 286 287 287 287 289 293 294 293 290 286 281 279 278 278 277 277 276 276 276 276 276 276 276 276 276 276 275 274 272 270 268 265 259 256 259 262 263 263 263 261 259 258 253 248 244 243 244 247 250 255 261 267 273 278 282 285 290 294 296 295 292 290
285 285 283 280 278 277 276 275 275 276 276 276 276 276 275 274 273 273 274 276 278 280 282 284 284 283 285 289 291 292 291 288 284 280 279 278 278 278 278 278 278 278 279 278 278 278 277 276 277 276 276 275 271 269 268 265 260 259 260 264 267 266 259 253 251 248 243 241 241 244 249 255 261 268 274 278 281 284 287 291 293 292 289 289 290
283 284 284 283 282 281 281 280 280 280 280 279 277 275 274 274 273 274 274 276 277 279 281 281 280 282 285 288 289 290 289 287 283 280 278 278 278 278 278 279 279 280 280 280 280 279 278 278 277 277 277 273 266 263 266 269 268 264 262 264 267 266 259 253 248 245 243 242 242 246 254 261 268 274 278 280 283 286 289 290 289 287 287 289 290
280 281 281 282 282 283 283 283 284 285 286 285 282 278 276 275 276 276 276 277 278 278 278 278 279 281 285 287 288 288 288 286 282 279 278 277 278 278 279 280 280 281 282 282 281 280 279 277 276 275 275 270 262 258 260 264 266 264 263 263 264 263 260 254 247 244 242 242 245 251 260 268 274 278 280 282 285 287 288 286 284 285 288 290 291
280 281 282 282 282 282 282 282 284 285 286 287 286 284 281 278 278 279 279 279 279 279 278 279 281 283 285 286 287 287 287 284 280 277 276 276 277 278 279 280 281 282 282 282 282 280 278 276 274 273 271 266 260 257 258 260 260 261 265 267 263 259 256 250 244 242 243 245 251 260 268 274 278 279 281 284 286 286 284 282 284 286 288 290 294
284 285 285 285 284 283 282 281 282 284 286 286 286 286 285 281 279 279 279 280 280 280 281 282 283 284 285 285 285 286 285 283 280 278 277 277 278 278 278 280 281 282 283 283 281 277 275 274 273 271 266 260 256 255 256 257 260 264 267 266 260 253 248 244 242 242 245 251 260 268 274 276 278 280 283 285 284 282 281 283 286 287 290 294 300
287 287 286 285 284 282 282 281 282 284 285 286 285 285 284 281 279 277 277 277 278 279 280 281 282 282 282 282 283 284 283 282 281 280 280 280 279 279 280 280 281 281 281 280 277 274 272 272 271 267 260 255 254 256 258 260 262 264 262 257 252 247 242 240 241 244 251 261 269 273 274 276 279 282 283 281 279 280 283 284 286 290 295 300 304
288 287 286 284 283 282 282 281 281 282 283 284 285 284 282 280 278 277 277 277 277 277 278 279 279 279 280 280 281 281 281 281 282 283 283 283 283 282 281 280 279 278 277 276 274 272 271 271 268 264 258 255 255 257 259 261 261 258 252 247 244 240 237 238 243 251 260 267 270 271 274 278 281 281 278 276 278 281 283 285 290 295 299 303 306
288 287 286 285 284 282 280 279 279 279 279 280 281 281 280 279 279 278 278 277 276 276 277 277 277 278 278 279 279 279 280 281 282 283 283 284 283 283 281 279 278 276 274 273 272 271 270 269 266 263 261 261 259 258 259 259 256 250 243 239 235 234 236 242 249 258 264 266 268 273 277 279 278 275 273 276 280 282 285 289 294 299 302 304 307
291 289 289 288 287 285 282 279 278 277 277 277 278 278 278 278 278 278 278 277 276 276 276 276 277 277 278 278 279 280 281 281 281 282 282 282 281 281 279 277 276 274 272 271 271 271 269 267 264 261 260 260 259 258 257 254 248 240 235 233 233 236 242 248 255 260 263 267 272 276 276 274 271 271 275 278 282 285 289 294 298 301 304 306 308
297 294 292 291 291 289 286 282 280 278 278 278 277 277 277 277 277 277 277 276 275 274 274 275 276 277 279 280 281 281 281 281 280 280 280 279 279 278 276 275 274 273 273 273 272 271 269 265 261 258 257 257 258 257 253 246 240 235 234 235 237 241 246 252 257 261 265 272 275 274 270 267 268 273 278 281 284 289 293 296 300 303 305 307 309
302 299 296 294 293 293 290 286 282 280 280 280 280 279 278 278 278 278 277 275 273 272 273 275 277 278 280 281 281 281 281 280 280 279 278 278 276 275 274 274 274 273 273 272 271 270 267 261 255 254 256 258 259 255 247 239 236 235 235 236 239 243 249 254 258 264 271 274 272 266 264 267 271 275 279 283 287 291 295 299 302 305 307 309 310
305 304 301 299 296 294 292 289 284 282 281 282 281 280 279 279 278 278 276 272 270 271 274 276 278 280 281 282 282 283 282 281 279 278 277 276 275 274 273 272 272 271 270 269 267 266 263 257 252 253 257 259 258 253 245 240 237 235 234 236 240 245 251 256 262 270 273 269 263 261 265 270 273 277 280 284 288 293 297 301 304 306 308 309 311
304 304 304 303 301 298 295 290 286 283 281 282 282 281 280 279 278 276 272 270 270 272 275 277 279 280 281 282 283 283 282 280 278 277 276 274 274 273 273 271 271 270 269 267 265 262 259 255 253 255 258 259 256 251 246 242 238 235 235 239 243 249 254 260 268 271 267 260 258 262 268 272 275 278 282 286 292 297 301 304 306 308 309 310 311
301 301 301 301 302 302 300 296 291 286 283 282 281 280 279 277 276 273 270 268 269 271 274 276 277 278 280 281 282 282 281 278 276 274 273 272 271 271 271 271 270 269 267 265 262 259 256 253 253 256 258 257 253 249 245 241 238 237 239 242 247 252 259 266 269 265 258 256 260 265 270 273 276 280 285 291 296 300 303 306 307 308 309 310 312
299 298 298 298 299 300 300 300 298 293 288 285 282 280 278 276 274 272 269 267 268 270 273 274 275 277 278 278 279 278 277 275 273 272 270 270 269 269 269 269 268 266 264 261 258 255 253 252 254 256 256 253 250 246 242 239 238 239 241 244 249 256 264 267 263 257 254 259 264 268 272 275 279 285 290 295 299 302 305 306 307 308 310 311 313
298 296 295 295 296 297 298 299 299 297 294 289 284 281 279 277 276 273 271 269 269 270 272 273 274 276 275 274 274 273 271 270 268 267 267 266 266 266 265 265 263 260 257 254 251 250 251 253 255 255 252 248 244 240 237 238 239 239 242 247 253 260 264 261 255 253 256 263 267 270 274 279 284 289 293 298 301 304 305 306 308 310 311 313 314
296 295 294 292 293 294 295 295 296 296 295 291 286 282 280 279 277 275 273 272 271 272 272 272 271 270 269 267 267 266 265 264 264 264 264 263 262 262 261 259 256 253 251 251 251 253 255 257 257 254 249 244 240 238 238 239 239 241 245 250 254 256 255 252 251 255 261 265 268 272 278 283 288 292 296 300 302 304 306 308 310 312 313 315 315
294 293 292 291 290 291 291 291 291 292 292 291 287 282 280 279 278 275 274 273 273 272 271 269 267 265 263 261 261 260 260 260 261 260 259 258 256 254 253 251 250 250 252 254 256 258 259 259 256 253 248 244 241 240 238 237 238 241 245 247 248 248 248 250 254 260 264 267 271 277 282 287 291 295 298 301 303 305 308 310 312 313 314 315 316
294 293 292 290 289 289 289 287 286 287 288 288 287 284 282 282 280 277 275 273 270 269 267 266 266 265 264 262 262 261 261 261 260 258 254 252 250 248 247 248 250 254 257 258 259 258 255 252 248 245 244 241 238 234 233 235 237 239 240 240 242 244 249 254 259 262 266 270 276 281 286 290 294 297 300 302 305 307 309 311 313 313 314 315 317
297 295 294 292 291 290 289 286 283 282 283 284 285 285 284 282 279 276 273 270 268 266 266 265 265 265 265 264 263 261 260 258 255 253 250 249 248 248 250 252 255 257 260 260 259 256 252 249 245 240 237 235 232 230 231 233 233 234 235 238 242 248 254 258 261 265 269 275 280 285 289 292 296 299 302 304 306 308 310 311 312 313 314 316 318
300 298 296 294 293 293 291 287 284 283 284 284 284 282 280 278 275 272 270 267 265 264 262 262 262 262 261 259 256 252 248 245 242 242 242 243 244 246 248 250 251 251 252 253 253 250 247 244 241 236 232 231 229 228 230 232 233 235 239 243 249 254 257 260 263 268 274 279 284 287 291 294 298 300 302 305 307 309 310 311 312 314 315 318 319
301 301 298 296 296 296 294 290 290 289 287 283 280 276 273 272 270 268 266 264 263 261 259 258 257 254 250 247 244 240 237 236 235 235 236 237 238 241 241 243 244 244 244 245 245 242 239 237 234 234 234 234 234 234 235 237 239 242 247 251 254 256 259 262 267 272 278 282 286 289 293 296 299 301 303 305 307 308 309 310 312 314 316 318 319
298 300 300 298 296 296 295 293 292 291 285 277 270 266 264 264 263 262 260 259 257 256 254 250 246 241 236 233 232 229 227 227 227 227 228 229 231 232 232 234 238 239 239 238 235 234 235 236 239 242 244 245 245 244 245 246 248 250 253 254 256 257 261 265 270 276 280 284 287 291 294 297 299 301 303 305 306 307 308 310 312 313 315 317 318
294 295 298 299 297 296 296 294 291 287 279 269 261 257 255 254 254 253 252 251 249 247 247 244 239 232 225 221 220 219 218 218 218 218 219 220 221 224 227 231 235 236 236 236 234 234 237 242 247 250 253 254 254 254 254 255 255 255 255 255 257 260 264 268 274 278 281 285 288 292 294 296 298 301 303 304 305 307 308 309 311 313 314 315 316
292 292 295 298 300 300 298 294 287 278 269 260 254 251 248 244 241 240 242 241 237 233 233 230 225 220 214 212 215 216 216 215 215 215 217 220 222 225 229 231 232 232 232 231 233 234 238 243 248 251 254 256 257 257 257 256 255 255 255 257 259 263 267 271 276 279 282 286 289 292 294 297 299 300 302 303 304 306 307 308 310 311 312 313 314
292 292 293 295 297 296 292 286 280 274 268 259 250 245 243 238 232 232 237 235 226 220 219 216 215 215 212 210 212 214 214 216 217 219 222 225 228 232 233 232 231 230 230 231 233 236 241 245 249 252 254 256 256 256 256 255 255 255 257 260 262 266 270 274 277 281 284 287 290 293 295 297 299 300 301 302 303 305 306 307 309 310 310 311 312
291 291 290 289 289 287 285 281 278 274 269 261 251 242 235 229 226 228 230 225 218 216 215 215 216 217 214 211 211 212 214 219 222 225 228 230 233 236 237 236 236 235 235 236 238 241 245 248 251 253 255 256 256 256 256 257 258 259 261 264 267 270 273 276 279 283 286 288 291 293 295 297 299 300 300 301 303 303 305 306 307 308 309 309 310
290 289 287 284 282 282 282 280 275 268 259 251 243 234 226 224 225 225 222 216 214 213 212 213 216 216 215 216 218 219 223 227 230 233 236 237 240 242 242 242 242 242 242 242 244 247 250 252 254 256 257 258 259 260 260 261 262 263 265 268 270 273 276 279 282 284 287 290 292 294 295 297 298 299 300 301 302 303 304 305 306 307 307 307 308
287 286 285 282 280 280 279 276 268 257 243 231 226 225 226 228 228 225 219 216 213 210 209 211 216 218 218 221 226 230 234 238 241 243 244 245 246 247 248 248 247 248 248 249 250 252 254 256 257 259 261 262 263 263 264 264 266 267 269 271 274 276 278 281 284 286 288 290 291 293 295 296 297 298 300 300 301 302 304 304 305 305 305 305 305
287 285 284 281 278 277 274 265 254 241 228 221 223 229 231 231 227 222 217 213 209 208 209 212 216 221 225 228 234 239 243 246 248 249 249 251 252 253 253 253 252 252 253 253 254 256 257 259 261 263 264 265 265 266 267 268 269 271 273 274 276 279 281 283 285 287 288 290 291 292 293 295 296 298 299 300 301 302 303 303 303 303 302 302 302
289 285 282 278 272 267 259 251 243 235 229 229 232 232 228 223 219 214 210 208 207 207 210 215 220 228 234 237 241 244 245 246 248 250 252 253 254 254 255 255 254 255 255 256 257 259 260 262 264 265 266 267 267 268 269 270 271 273 275 276 278 280 282 283 285 286 287 288 289 291 292 294 296 298 299 300 300 301 301 301 300 300 300 299 298
287 283 279 271 259 248 242 240 241 240 238 235 231 225 218 216 214 210 209 210 210 210 214 221 227 233 238 241 243 245 245 247 249 251 252 254 255 256 257 257 257 257 258 259 260 262 263 264 266 267 267 268 269 269 270 272 273 274 276 278 279 280 282 283 284 285 286 287 288 290 292 295 297 298 299 299 299 299 299 299 298 297 296 296 296
280 279 275 262 244 234 235 240 243 243 240 233 224 218 216 216 214 213 213 214 214 214 218 223 227 231 236 240 242 244 247 249 250 252 254 256 258 259 260 260 260 260 261 262 262 263 265 266 267 268 269 269 270 271 272 274 275 276 277 278 279 280 281 282 283 284 285 287 289 291 293 295 296 298 298 298 298 297 296 296 295 294 294 293 294
272 272 266 250 234 227 231 237 238 237 232 225 220 219 218 217 215 216 216 215 214 216 219 222 226 231 236 241 245 249 252 254 256 259 261 262 263 264 263 263 263 263 263 264 265 265 267 268 269 270 271 272 273 274 274 275 276 277 278 279 280 281 281 282 283 284 286 288 290 291 293 295 296 297 297 296 295 294 293 293 292 292 292 292 293
272 268 255 239 226 221 224 230 231 226 220 219 220 219 217 214 213 214 213 212 213 216 220 225 230 234 240 247 253 257 261 264 266 269 270 269 269 269 268 267 268 268 268 269 270 270 271 272 272 273 274 274 274 275 276 277 278 278 279 280 281 281 282 283 284 286 287 289 291 292 294 295 296 295 295 293 292 291 291 290 290 290 290 291 290
277 267 248 232 221 218 222 226 226 222 220 223 222 217 213 211 211 210 209 211 213 218 224 231 237 243 249 256 261 264 268 271 272 273 273 273 273 273 273 273 273 274 274 274 274 274 274 275 275 275 275 276 276 277 278 279 279 280 281 281 282 283 284 285 286 288 289 291 292 293 294 294 294 293 292 291 290 289 289 289 289 289 289 288 288
276 268 251 235 224 221 221 222 224 226 228 226 221 215 213 212 210 210 213 216 219 225 232 238 245 251 257 262 265 268 270 272 273 273 274 274 275 275 276 276 276 276 276 276 276 276 276 277 277 278 278 278 279 280 280 281 282 282 283 284 285 286 287 288 289 291 292 292 293 293 293 292 291 290 290 289 289 289 289 288 288 287 287 286 286
272 270 258 242 230 224 221 220 224 229 230 224 218 214 213 212 212 216 220 223 227 233 239 246 252 258 262 265 267 269 271 273 275 276 277 278 278 278 278 278 277 277 278 278 278 278 279 279 279 280 280 281 282 283 284 284 285 286 286 287 288 289 290 291 292 292 292 292 292 291 291 290 290 290 290 290 289 289 288 287 287 286 285 284 284
270 270 260 245 233 226 222 221 223 227 225 220 217 215 214 215 219 224 227 230 234 240 246 253 259 263 266 267 269 271 274 276 277 278 279 279 280 280 280 280 280 280 280 280 280 281 282 282 283 283 284 285 285 286 286 287 288 289 289 290 291 292 292 292 292 291 291 291 291 290 290 291 290 290 290 289 289 288 287 286 285 284 283 282 282
270 268 257 243 232 225 223 222 222 222 220 219 218 218 218 222 227 231 233 236 241 246 252 259 264 267 269 270 272 274 276 277 278 278 278 280 281 282 283 284 284 284 284 285 285 286 286 286 286 286 286 287 288 288 289 290 290 291 291 292 292 292 292 291 291 291 291 291 291 291 291 290 290 289 289 288 288 287 286 285 284 283 282 281 281
263 258 245 234 227 224 222 222 221 219 219 220 222 223 226 230 234 237 239 242 247 253 260 265 268 271 272 274 275 277 278 278 279 280 282 283 284 285 286 286 287 287 287 287 287 287 287 287 288 288 289 289 290 290 291 291 291 292 292 292 292 292 292 292 292 292 292 291 291 291 290 290 290 289 289 288 287 286 285 284 283 282 281 280 280
Height
3126 3126 3125 3125 3124 3124 3123 3122 3121 3120 3119 3118 3117 3116 3114 3113 3111 3109 3108 3108 3107 3106 3105 3104 3103 3102 3100 3098 3096 3094 3092 3090 3088 3086 3084 3083 3083 3082 3081 3080 3078 3078 3078 3078 3079 3079 3078 3078 3077 3077 3076 3075 3074 3073 3072 3071 3070 3068 3068 3069 3069 3070 3070 3069 3068 3067 3066 3065 3064 3063 3063 3064 3066 3067 3066 3064 3063 3062 3062 3062 3062 3062 3061 3060 3059
3121 3121 3121 3121 3120 3120 3119 3118 3117 3116 3115 3114 3114 3113 3111 3109 3107 3106 3104 3103 3102 3101 3100 3099 3098 3097 3095 3094 3092 3089 3087 3085 3083 3081 3079 3078 3078 3077 3076 3074 3074 3073 3073 3073 3073 3073 3072 3071 3071 3071 3071 3069 3068 3067 3067 3066 3064 3064 3064 3064 3064 3065 3065 3063 3062 3061 3060 3059 3059 3058 3058 3059 3061 3061 3061 3060 3059 3058 3058 3057 3057 3056 3056 3055 3054
3116 3116 3116 3116 3116 3116 3114 3113 3113 3112 3111 3110 3109 3108 3107 3106 3104 3102 3100 3098 3097 3096 3095 3094 3093 3092 3090 3089 3087 3085 3082 3081 3078 3076 3075 3074 3072 3071 3071 3069 3068 3068 3067 3067 3067 3067 3066 3065 3065 3065 3065 3063 3062 3062 3061 3060 3060 3060 3060 3060 3060 3060 3059 3058 3056 3055 3054 3054 3053 3053 3053 3054 3054 3055 3055 3055 3055 3055 3054 3053 3052 3051 3051 3050 3050
3110 3109 3110 3110 3111 3110 3109 3109 3108 3107 3106 3106 3105 3104 3102 3101 3100 3098 3096 3094 3092 3091 3089 3088 3087 3086 3085 3084 3082 3080 3078 3075 3073 3072 3070 3069 3067 3066 3065 3064 3063 3063 3062 3062 3062 3061 3060 3059 3059 3060 3059 3057 3056 3056 3055 3055 3055 3055 3056 3056 3055 3055 3054 3052 3051 3050 3049 3048 3048 3047 3048 3048 3048 3049 3049 3050 3051 3051 3050 3049 3048 3047 3046 3046 3045
3104 3104 3103 3103 3104 3104 3104 3104 3102 3102 3101 3100 3099 3098 3097 3095 3094 3092 3091 3089 3087 3086 3084 3083 3082 3081 3080 3079 3077 3075 3073 3070 3068 3067 3065 3064 3062 3061 3060 3059 3058 3057 3057 3056 3055 3055 3054 3054 3054 3054 3052 3051 3051 3050 3050 3049 3049 3050 3050 3050 3050 3049 3048 3046 3046 3045 3043 3042 3042 3042 3042 3043 3043 3045 3046 3046 3047 3047 3047 3046 3044 3043 3042 3041 3041
3100 3099 3098 3098 3098 3098 3098 3098 3097 3096 3095 3094 3094 3093 3091 3090 3088 3087 3085 3083 3082 3080 3079 3077 3076 3075 3074 3073 3072 3070 3068 3065 3063 3062 3060 3058 3057 3056 3054 3053 3052 3052 3051 3050 3050 3049 3049 3049 3048 3047 3046 3046 3045 3045 3044 3044 3043 3044 3045 3044 3044 3043 3042 3041 3040 3039 3037 3037 3037 3037 3038 3039 3040 3041 3041 3042 3042 3043 3043 3042 3041 3039 3038 3037 3036
3095 3094 3093 3092 3092 3091 3092 3091 3090 3090 3089 3088 3087 3086 3085 3084 3082 3081 3079 3077 3076 3075 3073 3072 3070 3069 3068 3067 3066 3065 3062 3060 3059 3057 3055 3053 3052 3051 3050 3049 3048 3047 3046 3045 3045 3044 3044 3043 3043 3042 3041 3040 3039 3039 3039 3038 3038 3039 3039 3038 3038 3037 3036 3035 3034 3033 3033 3032 3033 3034 3034 3035 3035 3035 3036 3038 3039 3039 3039 3038 3036 3034 3033 3033 3032
3090 3089 3087 3087 3086 3086 3085 3084 3083 3082 3081 3080 3080 3080 3079 3078 3077 3075 3073 3071 3070 3069 3067 3066 3065 3064 3063 3062 3060 3059 3057 3055 3054 3052 3050 3048 3047 3046 3045 3044 3043 3042 3041 3041 3040 3039 3039 3038 3037 3036 3035 3034 3034 3033 3033 3033 3033 3033 3033 3033 3032 3031 3030 3030 3029 3029 3029 3029 3029 3029 3029 3030 3030 3031 3033 3034 3035 3035 3034 3033 3032 3030 3029 3028 3027
3085 3084 3083 3083 3082 3081 3081 3079 3078 3077 3076 3075 3074 3074 3073 3072 3070 3069 3067 3066 3064 3063 3061 3060 3059 3058 3057 3055 3054 3053 3051 3050 3049 3046 3044 3043 3042 3041 3040 3039 3038 3037 3036 3035 3035 3034 3033 3032 3031 3030 3029 3029 3028 3028 3027 3028 3028 3028 3028 3027 3026 3026 3025 3025 3025 3025 3024 3024 3024 3024 3024 3025 3027 3028 3029 3030 3030 3030 3029 3028 3027 3025 3024 3024 3023
3081 3080 3079 3079 3078 3077 3076 3075 3074 3072 3071 3070 3069 3068 3067 3065 3063 3062 3061 3059 3058 3057 3055 3054 3052 3052 3050 3049 3048 3047 3045 3044 3043 3041 3039 3037 3036 3035 3034 3033 3032 3031 3031 3030 3029 3029 3028 3027 3026 3025 3024 3023 3023 3022 3022 3022 3023 3023 3023 3022 3021 3021 3021 3020 3020 3019 3019 3019 3019 3019 3020 3021 3022 3024 3024 3025 3025 3025 3024 3023 3022 3020 3019 3019 3019
3077 3076 3075 3074 3073 3072 3071 3070 3068 3067 3065 3064 3063 3061 3060 3058 3057 3055 3054 3053 3052 3050 3049 3047 3046 3045 3044 3043 3042 3041 3040 3038 3037 3035 3033 3031 3030 3029 3028 3027 3026 3025 3025 3024 3024 3023 3022 3021 3020 3019 3019 3018 3017 3017 3017 3017 3018 3018 3017 3017 3017 3016 3016 3015 3014 3014 3014 3014 3015 3015 3015 3016 3018 3019 3020 3020 3021 3021 3020 3019 3018 3016 3015 3015 3015
3072 3071 3070 3069 3068 3066 3065 3064 3062 3060 3059 3058 3056 3054 3053 3051 3050 3049 3048 3047 3046 3044 3042 3041 3040 3039 3038 3036 3035 3034 3034 3033 3031 3029 3027 3025 3024 3023 3022 3021 3020 3019 3019 3018 3017 3017 3016 3015 3014 3013 3013 3012 3012 3012 3012 3012 3012 3012 3012 3012 3011 3011 3010 3009 3009 3009 3008 3008 3010 3011 3012 3013 3014 3015 3016 3016 3017 3017 3016 3015 3013 3012 3011 3011 3011
3067 3066 3065 3064 3062 3061 3059 3057 3055 3054 3052 3051 3049 3047 3046 3045 3044 3043 3042 3041 3039 3037 3036 3035 3034 3032 3031 3030 3029 3028 3027 3026 3025 3023 3021 3020 3019 3017 3016 3015 3014 3013 3012 3012 3011 3011 3010 3010 3009 3008 3007 3007 3007 3007 3007 3007 3007 3006 3006 3005 3005 3005 3005 3004 3003 3003 3004 3004 3005 3006 3008 3009 3010 3011 3012 3013 3013 3012 3011 3010 3009 3008 3007 3007 3006
3061 3060 3060 3059 3057 3055 3053 3051 3049 3048 3046 3044 3042 3040 3039 3038 3038 3037 3035 3034 3032 3031 3030 3028 3027 3026 3025 3023 3022 3021 3021 3020 3018 3017 3015 3014 3013 3011 3010 3009 3008 3007 3006 3006 3005 3005 3004 3003 3003 3002 3001 3001 3001 3002 3002 3001 3000 3000 2999 2999 2999 2999 2998 2998 2998 2999 3001 3001 3002 3002 3004 3005 3006 3007 3008 3008 3008 3007 3006 3006 3005 3004 3004 3003 3002
3055 3054 3053 3052 3051 3049 3047 3045 3043 3042 3040 3038 3036 3035 3033 3032 3031 3030 3029 3027 3026 3025 3023 3022 3021 3020 3018 3017 3016 3015 3015 3014 3012 3011 3009 3008 3007 3006 3004 3003 3002 3001 3000 3000 2999 2999 2998 2997 2996 2996 2995 2996 2996 2996 2996 2995 2994 2994 2993 2993 2993 2993 2993 2993 2994 2995 2997 2998 2999 2999 3001 3002 3002 3003 3003 3003 3003 3002 3002 3002 3001 3000 3000 2998 2997
3048 3048 3046 3045 3043 3041 3040 3038 3037 3035 3034 3032 3030 3029 3027 3026 3024 3023 3021 3020 3019 3018 3017 3015 3014 3013 3012 3011 3010 3009 3009 3007 3005 3004 3003 3002 3000 2999 2998 2997 2996 2995 2994 2994 2993 2993 2992 2991 2990 2990 2990 2990 2991 2990 2989 2989 2988 2987 2986 2986 2986 2987 2988 2989 2990 2991 2993 2995 2996 2997 2998 2998 2998 2998 2998 2998 2998 2998 2998 2998 2997 2996 2995 2993 2992
3042 3040 3039 3037 3036 3034 3033 3031 3030 3029 3027 3025 3024 3023 3021 3019 3018 3016 3014 3013 3012 3011 3010 3009 3008 3006 3005 3004 3004 3003 3002 3001 2999 2998 2996 2995 2994 2992 2992 2991 2990 2989 2988 2988 2987 2986 2986 2985 2984 2984 2984 2985 2985 2984 2984 2983 2982 2982 2981 2981 2981 2982 2984 2985 2987 2989 2991 2993 2994 2994 2994 2994 2994 2994 2994 2994 2994 2994 2994 2994 2993 2992 2990 2989 2987
3035 3033 3032 3031 3029 3027 3026 3024 3023 3022 3020 3019 3017 3016 3014 3012 3011 3009 3008 3006 3005 3004 3003 3002 3001 3000 2999 2998 2998 2997 2996 2994 2993 2991 2990 2989 2987 2986 2985 2984 2983 2983 2982 2981 2980 2980 2979 2979 2978 2978 2978 2978 2978 2979 2979 2978 2976 2976 2976 2977 2977 2978 2980 2982 2984 2987 2989 2990 2990 2990 2990 2990 2990 2990 2990 2990 2991 2991 2991 2990 2989 2988 2986 2984 2982
3029 3027 3026 3025 3023 3021 3019 3017 3016 3014 3013 3012 3010 3009 3007 3006 3004 3003 3001 3000 2999 2997 2996 2995 2995 2994 2993 2993 2992 2991 2989 2988 2987 2985 2984 2983 2981 2980 2979 2978 2977 2976 2976 2975 2975 2975 2974 2974 2973 2973 2973 2973 2973 2973 2972 2971 2971 2972 2973 2973 2974 2975 2978 2980 2983 2985 2986 2987 2987 2986 2986 2986 2986 2986 2987 2987 2987 2987 2987 2986 2985 2983 2981 2979 2976
3023 3021 3020 3018 3016 3015 3013 3011 3010 3008 3006 3005 3004 3002 3001 2999 2998 2996 2995 2993 2992 2991 2990 2990 2989 2988 2988 2987 2986 2985 2983 2982 2981 2979 2978 2977 2975 2974 2973 2971 2971 2970 2970 2970 2970 2970 2969 2968 2968 2969 2969 2968 2968 2967 2966 2966 2966 2968 2969 2971 2972 2974 2976 2979 2981 2982 2983 2983 2983 2983 2983 2983 2983 2983 2983 2984 2983 2983 2983 2982 2980 2978 2976 2974 2971
3017 3015 3014 3012 3010 3008 3007 3005 3003 3002 3000 2999 2997 2996 2995 2993 2992 2990 2989 2988 2986 2985 2985 2984 2983 2982 2982 2980 2979 2978 2977 2976 2974 2973 2972 2970 2969 2968 2967 2966 2966 2965 2965 2964 2964 2964 2963 2963 2963 2964 2964 2963 2963 2962 2962 2962 2963 2964 2966 2967 2970 2972 2975 2977 2978 2979 2980 2980 2980 2980 2980 2980 2980 2980 2980 2980 2980 2979 2979 2977 2975 2973 2971 2968 2966
3011 3009 3007 3006 3004 3002 3000 2999 2997 2996 2994 2993 2991 2990 2989 2987 2986 2984 2983 2982 2981 2980 2979 2978 2977 2976 2975 2974 2973 2972 2971 2970 2968 2967 2966 2965 2963 2962 2962 2961 2960 2960 2959 2959 2959 2958 2958 2958 2958 2959 2959 2959 2959 2959 2959 2959 2960 2961 2963 2965 2968 2971 2973 2974 2975 2976 2977 2977 2977 2977 2977 2977 2977 2978 2978 2977 2977 2976 2974 2972 2970 2968 2966 2964 2962
3005 3003 3001 3000 2998 2996 2994 2992 2991 2989 2988 2986 2985 2983 2982 2981 2979 2978 2977 2976 2975 2974 2973 2972 2971 2970 2968 2967 2966 2965 2965 2963 2962 2961 2960 2959 2958 2957 2956 2956 2955 2955 2954 2954 2954 2953 2953 2954 2954 2954 2954 2955 2955 2955 2955 2956 2957 2959 2961 2964 2966 2968 2970 2971 2972 2973 2973 2974 2974 2974 2974 2975 2975 2975 2974 2974 2973 2971 2969 2967 2965 2963 2961 2959 2957
2998 2996 2995 2993 2991 2989 2988 2986 2984 2982 2981 2979 2978 2976 2975 2974 2973 2972 2971 2970 2969 2968 2967 2966 2964 2963 2962 2961 2960 2959 2958 2957 2956 2955 2954 2954 2952 2952 2951 2950 2950 2950 2949 2949 2949 2949 2949 2949 2949 2950 2950 2950 2951 2951 2952 2953 2955 2957 2960 2962 2964 2966 2967 2968 2969 2970 2971 2971 2971 2971 2972 2972 2971 2971 2971 2969 2968 2966 2964 2963 2961 2958 2956 2954 2952
2991 2989 2988 2986 2984 2983 2981 2979 2977 2975 2974 2972 2971 2969 2968 2967 2966 2965 2964 2963 2962 2961 2960 2959 2957 2956 2955 2954 2954 2953 2952 2951 2950 2949 2949 2948 2947 2947 2946 2945 2945 2945 2944 2944 2944 2945 2945 2945 2946 2946 2946 2947 2947 2949 2950 2951 2954 2956 2958 2960 2961 2962 2964 2965 2966 2967 2968 2968 2968 2968 2968 2968 2968 2967 2966 2965 2963 2962 2960 2958 2956 2954 2952 2949 2946
2983 2982 2981 2979 2978 2976 2974 2973 2971 2969 2967 2965 2964 2962 2961 2960 2959 2958 2957 2956 2955 2954 2953 2952 2951 2950 2948 2948 2947 2946 2945 2945 2944 2944 2943 2943 2942 2942 2941 2941 2940 2940 2940 2940 2941 2941 2941 2942 2942 2942 2943 2944 2945 2947 2948 2950 2952 2954 2955 2957 2958 2960 2961 2962 2963 2964 2964 2965 2965 2965 2965 2964 2964 2963 2961 2960 2959 2957 2956 2954 2952 2949 2946 2944 2941
2976 2975 2973 2972 2970 2969 2967 2965 2964 2962 2960 2958 2957 2955 2954 2953 2952 2951 2950 2949 2948 2947 2946 2945 2944 2942 2941 2940 2939 2939 2939 2939 2938 2938 2938 2938 2937 2937 2937 2937 2937 2937 2937 2937 2938 2938 2938 2938 2939 2939 2940 2942 2943 2945 2946 2948 2950 2951 2953 2954 2955 2957 2958 2959 2960 2961 2961 2961 2961 2961 2961 2960 2959 2958 2957 2956 2954 2953 2951 2949 2946 2944 2941 2938 2936
2969 2968 2966 2965 2963 2962 2960 2958 2956 2955 2953 2951 2950 2948 2947 2946 2945 2944 2943 2942 2941 2940 2939 2938 2937 2935 2934 2933 2932 2932 2933 2933 2933 2933 2933 2933 2933 2933 2933 2934 2934 2934 2935 2935 2935 2935 2935 2935 2936 2937 2938 2940 2941 2943 2944 2946 2947 2949 2950 2951 2953 2954 2955 2956 2957 2957 2958 2958 2958 2957 2957 2956 2955 2954 2953 2951 2950 2948 2945 2943 2941 2938 2936 2934 2931
2963 2961 2959 2958 2956 2954 2953 2951 2949 2947 2945 2944 2942 2941 2940 2939 2938 2937 2936 2936 2935 2934 2933 2932 2931 2930 2929 2928 2928 2928 2928 2928 2929 2929 2929 2929 2930 2930 2931 2931 2931 2932 2932 2932 2932 2933 2933 2933 2934 2935 2936 2938 2939 2940 2942 2943 2945 2946 2947 2949 2950 2951 2952 2953 2954 2954 2954 2954 2954 2953 2953 2952 2951 2949 2948 2947 2945 2943 2941 2938 2936 2934 2931 2929 2927
2957 2955 2953 2951 2949 2947 2945 2943 2941 2939 2938 2936 2935 2934 2933 2932 2931 2931 2930 2929 2929 2928 2927 2927 2926 2926 2925 2924 2924 2924 2924 2924 2925 2926 2926 2927 2927 2927 2928 2928 2929 2930 2930 2930 2931 2931 2932 2932 2933 2934 2935 2936 2937 2939 2940 2941 2943 2944 2945 2946 2947 2949 2949 2950 2950 2951 2951 2950 2950 2949 2948 2947 2946 2945 2943 2942 2940 2938 2936 2934 2931 2929 2926 2924 2922
2951 2949 2947 2944 2943 2941 2939 2937 2935 2933 2931 2930 2929 2928 2927 2926 2925 2924 2924 2923 2923 2922 2922 2921 2920 2920 2920 2920 2920 2920 2920 2920 2920 2921 2922 2923 2924 2924 2925 2926 2927 2927 2928 2928 2929 2930 2930 2931 2932 2933 2934 2935 2936 2938 2939 2940 2941 2942 2944 2944 2945 2946 2947 2947 2947 2947 2947 2946 2946 2945 2944 2943 2941 2940 2938 2937 2935 2933 2931 2929 2927 2924 2921 2919 2916
2946 2944 2941 2938 2936 2935 2933 2931 2930 2928 2926 2925 2924 2922 2921 2920 2919 2919 2918 2918 2917 2917 2916 2916 2915 2916 2916 2916 2916 2916 2916 2916 2917 2918 2919 2920 2921 2921 2922 2923 2924 2925 2926 2927 2928 2929 2929 2930 2931 2932 2933 2934 2936 2937 2938 2939 2940 2941 2942 2943 2943 2943 2943 2944 2944 2943 2943 2942 2941 2940 2939 2938 2936 2935 2933 2932 2930 2929 2927 2924 2922 2919 2917 2914 2911
2940 2938 2936 2933 2931 2929 2928 2927 2925 2924 2922 2920 2919 2918 2917 2915 2914 2913 2912 2912 2911 2911 2911 2911 2911 2912 2912 2912 2912 2912 2912 2913 2914 2915 2916 2917 2918 2919 2920 2921 2922 2923 2924 2925 2926 2927 2928 2929 2930 2931 2932 2933 2935 2936 2937 2938 2939 2939 2940 2940 2940 2940 2940 2940 2940 2939 2938 2938 2936 2935 2934 2933 2932 2930 2928 2927 2925 2924 2922 2920 2917 2915 2912 2910 2908
2934 2932 2930 2928 2925 2923 2922 2921 2920 2919 2917 2915 2914 2913 2912 2911 2909 2908 2907 2907 2906 2906 2906 2907 2908 2908 2909 2909 2910 2910 2910 2911 2911 2912 2914 2915 2916 2916 2917 2918 2919 2921 2922 2923 2924 2926 2927 2928 2929 2930 2931 2932 2933 2934 2935 2936 2936 2937 2937 2938 2937 2937 2937 2936 2935 2935 2934 2933 2931 2930 2929 2928 2927 2925 2924 2922 2920 2919 2917 2915 2912 2910 2908 2905 2903
2927 2926 2924 2922 2920 2918 2917 2916 2915 2913 2911 2909 2908 2907 2907 2907 2906 2905 2903 2903 2903 2903 2903 2904 2905 2906 2906 2907 2907 2908 2909 2909 2910 2910 2911 2912 2913 2914 2915 2915 2917 2918 2919 2921 2922 2923 2924 2925 2926 2927 2928 2929 2930 2931 2932 2933 2933 2934 2934 2934 2934 2933 2933 2932 2931 2930 2929 2928 2927 2926 2925 2923 2922 2920 2919 2917 2916 2914 2912 2910 2907 2905 2903 2901 2898
2921 2919 2918 2916 2915 2914 2913 2912 2911 2909 2907 2905 2904 2903 2903 2904 2903 2902 2901 2901 2901 2901 2901 2902 2903 2904 2904 2904 2905 2906 2906 2907 2908 2908 2909 2910 2911 2911 2912 2913 2914 2916 2917 2918 2920 2921 2922 2923 2924 2924 2925 2926 2927 2928 2928 2929 2930 2930 2930 2930 2930 2929 2928 2928 2927 2926 2925 2923 2922 2921 2920 2918 2917 2915 2914 2912 2911 2908 2906 2904 2902 2900 2898 2896 2894
2914 2912 2911 2910 2909 2908 2907 2906 2906 2905 2903 2902 2901 2900 2900 2900 2900 2899 2899 2899 2899 2899 2899 2900 2902 2903 2903 2903 2903 2903 2904 2905 2905 2906 2907 2907 2908 2909 2910 2911 2913 2914 2915 2916 2917 2918 2919 2920 2921 2921 2922 2922 2923 2924 2925 2925 2926 2926 2926 2926 2925 2925 2924 2923 2922 2921 2920 2918 2917 2916 2914 2913 2912 2910 2909 2907 2905 2903 2901 2899 2897 2895 2892 2890 2888
2907 2906 2905 2904 2902 2901 2901 2900 2900 2899 2898 2897 2896 2895 2895 2895 2895 2896 2896 2897 2897 2897 2897 2899 2901 2902 2901 2901 2901 2902 2902 2903 2904 2905 2905 2906 2906 2907 2908 2910 2911 2912 2913 2914 2915 2916 2917 2917 2918 2918 2919 2919 2920 2920 2921 2921 2921 2922 2921 2921 2921 2920 2919 2919 2917 2916 2915 2913 2912 2910 2909 2908 2906 2905 2903 2901 2899 2897 2895 2893 2891 2889 2887 2885 2883
2901 2900 2899 2898 2896 2895 2894 2894 2894 2894 2893 2892 2891 2891 2891 2891 2892 2893 2894 2895 2895 2894 2895 2897 2899 2900 2900 2900 2900 2901 2902 2902 2903 2904 2904 2904 2905 2906 2907 2908 2909 2910 2911 2912 2912 2913 2914 2914 2914 2915 2915 2916 2916 2917 2917 2917 2917 2917 2917 2916 2916 2915 2915 2914 2912 2911 2909 2908 2906 2905 2903 2902 2901 2899 2897 2895 2893 2891 2889 2887 2885 2883 2881 2879 2877
2895 2894 2893 2892 2890 2889 2888 2888 2889 2889 2889 2888 2888 2888 2888 2889 2889 2890 2891 2891 2892 2892 2893 2895 2897 2898 2898 2899 2899 2900 2901 2902 2902 2903 2903 2903 2903 2904 2905 2906 2906 2907 2908 2909 2909 2910 2910 2911 2911 2911 2911 2912 2912 2912 2912 2912 2912 2912 2912 2912 2911 2910 2909 2908 2907 2905 2903 2902 2900 2899 2897 2896 2895 2893 2891 2889 2887 2885 2883 2881 2879 2877 2875 2873 2871
2889 2888 2887 2886 2885 2884 2883 2884 2884 2884 2885 2885 2885 2885 2886 2886 2886 2887 2887 2888 2888 2889 2890 2892 2894 2895 2896 2897 2898 2899 2900 2900 2901 2901 2901 2901 2902 2902 2902 2903 2903 2904 2904 2905 2906 2906 2906 2907 2907 2907 2907 2907 2907 2908 2908 2908 2908 2908 2907 2907 2906 2905 2904 2902 2901 2899 2898 2896 2894 2893 2892 2890 2889 2887 2885 2882 2880 2878 2876 2874 2873 2871 2869 2867 2865
2883 2882 2881 2880 2879 2879 2879 2880 2880 2880 2880 2881 2882 2883 2884 2884 2884 2885 2885 2886 2886 2887 2888 2890 2892 2893 2895 2896 2897 2897 2898 2898 2899 2899 2899 2899 2899 2899 2899 2899 2900 2900 2901 2901 2902 2902 2902 2902 2902 2902 2902 2903 2903 2903 2903 2903 2903 2903 2902 2901 2900 2899 2898 2897 2895 2893 2891 2890 2888 2887 2886 2884 2882 2880 2878 2876 2874 2872 2870 2868 2866 2864 2862 2861 2859
2877 2876 2875 2874 2874 2875 2876 2876 2876 2876 2877 2878 2879 2880 2881 2881 2882 2882 2883 2884 2885 2886 2887 2888 2890 2891 2893 2894 2895 2895 2895 2896 2896 2896 2896 2896 2896 2896 2896 2896 2896 2897 2897 2897 2898 2898 2898 2898 2898 2898 2898 2898 2898 2898 2898 2898 2897 2897 2896 2895 2894 2893 2892 2890 2889 2887 2885 2884 2882 2881 2879 2877 2875 2873 2871 2869 2867 2865 2863 2861 2859 2857 2856 2854 2853
2870 2870 2869 2869 2869 2870 2871 2872 2872 2872 2873 2874 2875 2876 2878 2879 2879 2880 2881 2882 2883 2884 2885 2886 2888 2889 2890 2891 2892 2892 2892 2893 2893 2893 2893 2893 2893 2893 2893 2893 2893 2893 2893 2893 2893 2893 2893 2893 2893 2893 2893 2893 2893 2893 2893 2892 2892 2891 2890 2889 2888 2887 2885 2884 2882 2880 2879 2877 2876 2874 2872 2870 2869 2867 2864 2862 2860 2858 2856 2855 2853 2851 2849 2848 2846
2865 2864 2864 2864 2865 2865 2866 2867 2868 2869 2870 2870 2871 2872 2874 2875 2876 2877 2879 2880 2881 2882 2883 2884 2886 2887 2887 2888 2889 2889 2889 2889 2890 2890 2890 2889 2889 2889 2889 2889 2888 2888 2888 2888 2888 2888 2888 2888 2888 2888 2888 2888 2888 2887 2887 2886 2886 2885 2884 2883 2882 2880 2879 2877 2875 2874 2873 2871 2869 2868 2866 2864 2862 2859 2857 2855 2853 2851 2849 2848 2846 2844 2843 2841 2840
2860 2860 2860 2860 2861 2862 2863 2865 2866 2866 2867 2867 2869 2870 2872 2872 2873 2875 2876 2877 2878 2879 2880 2882 2883 2884 2884 2885 2885 2886 2886 2886 2886 2886 2886 2886 2885 2885 2885 2884 2884 2884 2884 2884 2884 2884 2883 2883 2883 2883 2882 2882 2882 2882 2881 2881 2880 2879 2878 2877 2875 2874 2872 2870 2869 2867 2866 2864 2863 2861 2858 2856 2854 2852 2850 2847 2846 2844 2843 2841 2839 2838 2836 2835 2834
2857 2856 2857 2857 2858 2859 2860 2861 2862 2863 2864 2865 2866 2868 2869 2870 2871 2872 2873 2874 2875 2876 2877 2879 2880 2880 2881 2881 2882 2882 2882 2882 2882 2882 2882 2881 2881 2881 2880 2880 2880 2880 2880 2879 2879 2879 2878 2878 2878 2877 2877 2877 2876 2876 2875 2874 2874 2873 2872 2870 2869 2867 2866 2864 2862 2860 2858 2857 2855 2853 2851 2849 2846 2844 2842 2840 2838 2837 2836 2834 2832 2831 2829 2828 2827
2853 2853 2853 2854 2855 2856 2856 2857 2858 2860 2861 2862 2863 2865 2866 2867 2868 2869 2870 2871 2872 2873 2874 2875 2876 2877 2877 2877 2878 2878 2878 2878 2878 2878 2877 2877 2877 2876 2876 2876 2875 2875 2875 2875 2874 2874 2873 2873 2872 2872 2871 2871 2870 2870 2869 2868 2867 2866 2865 2864 2862 2860 2859 2857 2855 2853 2851 2848 2847 2845 2843 2841 2839 2837 2834 2833 2831 2830 2828 2827 2825 2824 2823 2822 2821
2849 2849 2849 2850 2851 2851 2852 2853 2854 2856 2858 2859 2860 2861 2863 2864 2866 2867 2868 2869 2869 2870 2871 2872 2872 2873 2873 2874 2874 2874 2874 2874 2873 2873 2873 2872 2872 2871 2871 2871 2870 2870 2870 2869 2869 2868 2867 2867 2866 2866 2865 2865 2864 2863 2863 2862 2860 2859 2858 2856 2855 2853 2851 2849 2847 2845 2843 2841 2839 2837 2835 2833 2831 2829 2827 2826 2824 2823 2821 2820 2819 2817 2816 2815 2815
2844 2845 2845 2846 2847 2848 2849 2850 2851 2853 2854 2856 2857 2858 2860 2862 2863 2864 2865 2866 2866 2867 2868 2868 2868 2869 2869 2869 2869 2869 2869 2869 2868 2868 2868 2867 2867 2866 2866 2866 2865 2865 2864 2864 2863 2862 2862 2861 2861 2860 2860 2859 2858 2857 2856 2855 2853 2852 2850 2848 2847 2845 2843 2841 2839 2837 2835 2833 2831 2829 2827 2825 2823 2822 2820 2818 2817 2815 2814 2813 2812 2811 2810 2809 2809
2840 2841 2841 2842 2843 2845 2846 2847 2848 2850 2852 2853 2855 2856 2857 2859 2861 2862 2862 2863 2863 2864 2864 2864 2865 2865 2865 2865 2865 2864 2864 2864 2863 2863 2862 2862 2861 2861 2861 2860 2860 2859 2859 2858 2858 2857 2856 2856 2855 2854 2854 2853 2851 2850 2849 2847 2846 2844 2842 2840 2839 2837 2835 2833 2831 2829 2826 2824 2822 2820 2819 2817 2815 2814 2812 2811 2810 2809 2808 2806 2805 2804 2804 2803 2803